This is the latest recevied weather packets stored in our database for station/object 9A3XK-13. If no packets are shown the sender has not sent any weather packets the latest 1 day(s).
| Time | Temp. | Humidity | Pressure | Rain* | Wind** | Luminosity | Snow |
|---|---|---|---|---|---|---|---|
| 1778065217 | 26.11° C | 43% | 1011.1 hPa | 0 mm | - | 839 W/m² | - |
| 1778064617 | 26.11° C | 42% | 1011.1 hPa | 0 mm | - | 834 W/m² | - |
| 1778063717 | 26.11° C | 42% | 1011.3 hPa | 0 mm | - | 835 W/m² | - |
| 1778063418 | 26.11° C | 41% | 1011.3 hPa | 0 mm | - | 829 W/m² | - |
| 1778063117 | 26.11° C | 42% | 1011.4 hPa | 0 mm | - | 805 W/m² | - |
| 1778062517 | 25.56° C | 43% | 1011.5 hPa | 0 mm | - | 809 W/m² | - |
| 1778062218 | 25.56° C | 42% | 1011.5 hPa | 0 mm | - | 773 W/m² | - |
| 1778061317 | 24.44° C | 46% | 1011.5 hPa | 0 mm | - | 780 W/m² | - |
| 1778061017 | 24.44° C | 46% | 1011.6 hPa | 0 mm | - | 798 W/m² | - |
| 1778060717 | 24.44° C | 47% | 1011.7 hPa | 0 mm | - | 796 W/m² | - |
| 1778060417 | 23.89° C | 47% | 1011.7 hPa | 0 mm | - | 796 W/m² | - |
| 1778060117 | 23.89° C | 46% | 1011.7 hPa | 0 mm | - | 791 W/m² | - |
| 1778059820 | 23.89° C | 46% | 1011.7 hPa | 0 mm | - | 789 W/m² | - |
| 1778059217 | 23.89° C | 45% | 1011.9 hPa | 0 mm | - | 652 W/m² | - |
| 1778058620 | 23.33° C | 48% | 1011.8 hPa | 0 mm | - | 792 W/m² | - |
| 1778058320 | 23.33° C | 49% | 1012 hPa | 0 mm | - | 657 W/m² | - |
| 1778057717 | 23.33° C | 50% | 1012 hPa | 0 mm | - | 871 W/m² | - |
| 1778057418 | 22.78° C | 50% | 1012.1 hPa | 0 mm | - | 854 W/m² | - |
| 1778057116 | 22.22° C | 52% | 1012 hPa | 0 mm | - | 866 W/m² | - |
| 1778056517 | 21.67° C | 53% | 1012.1 hPa | 0 mm | - | 578 W/m² | - |
| 1778056217 | 21.67° C | 55% | 1012.1 hPa | 0 mm | - | 474 W/m² | - |
| 1778055917 | 21.11° C | 54% | 1012.1 hPa | 0 mm | - | 445 W/m² | - |
| 1778054717 | 20.56° C | 53% | 1012.1 hPa | 0 mm | - | 735 W/m² | - |
| 1778053817 | 19.44° C | 56% | 1012.1 hPa | 0 mm | - | 522 W/m² | - |
| 1778052920 | 18.89° C | 57% | 1012.1 hPa | 0 mm | - | 533 W/m² | - |
* Rain latest hour (hover to see other rain measurements)
** Current wind speed in m/s (hover to see current wind gust speed)